{"data":{"norad_id":60465,"epoch":"2026-05-25T03:06:30.191904Z","epoch_age_seconds":63091,"freshness":"FRESH","line1":"1 60465U 24148H   26145.12951611  .00006568  00000+0  24017-3 0  9995","line2":"2 60465  34.9914 303.2030 0007388 340.1948  19.8480 15.27353771 98669","mean_motion":15.27353771,"eccentricity":0.0007388,"inclination_deg":34.9914,"raan_deg":303.203,"arg_perigee_deg":340.1948,"mean_anomaly_deg":19.848,"bstar":0.00024017,"rev_number":9866,"period_min":94.280711341498,"perigee_km":478.65704584307,"apogee_km":488.79613548464,"semimajor_km":6861.8635906639,"source":"CELESTRAK","updated_at":"2026-05-25T13:38:02.086642Z"}}